| time (UTC) | temp C | wind direction | speed KPH | gust KPH | rain 1hr cm | rain 24hr cm | rain mn cm | humidity % | barometer mb |
| 20260507082006 | 10 | 295 | 4.8 | 17.7 | 0.00 | 0.00 | 0.00 | 73 | 1016.9 |
| 20260507081506 | 10 | 285 | 8.0 | 17.7 | 0.00 | 0.00 | 0.00 | 73 | 1016.8 |
| 20260507081006 | 10 | 262 | 6.4 | 17.7 | 0.00 | 0.00 | 0.00 | 75 | 1016.7 |
| 20260507080605 | 10 | 260 | 6.4 | 17.7 | 0.00 | 0.00 | 0.00 | 75 | 1016.7 |
| 20260507080007 | 10 | 295 | 8.0 | 16.1 | 0.00 | 0.00 | 0.00 | 76 | 1016.6 |
| 20260507075504 | 10 | 290 | 6.4 | 16.1 | 0.00 | 0.00 | 0.00 | 76 | 1016.6 |
| 20260507075005 | 10 | 277 | 6.4 | 20.9 | 0.00 | 0.00 | 0.00 | 75 | 1016.5 |
| 20260507074508 | 10 | 314 | 11.3 | 20.9 | 0.00 | 0.00 | 0.00 | 73 | 1016.4 |
| 20260507074002 | 10 | 274 | 8.0 | 17.7 | 0.00 | 0.00 | 0.00 | 74 | 1016.5 |
| 20260507073502 | 10 | 314 | 8.0 | 14.5 | 0.00 | 0.00 | 0.00 | 72 | 1016.5 |
| 20260507073003 | 11 | 264 | 4.8 | 14.5 | 0.00 | 0.00 | 0.00 | 73 | 1016.4 |
| 20260507072501 | 11 | 318 | 0.0 | 14.5 | 0.00 | 0.00 | 0.00 | 73 | 1016.4 |
| 20260507072000 | 10 | 324 | 0.0 | 0.0 | 0.00 | 0.00 | 0.00 | 78 | 1016.4 |
| 20260507071502 | 10 | 245 | 0.0 | 3.2 | 0.00 | 0.00 | 0.00 | 80 | 1016.3 |
| 20260507071101 | 10 | 147 | 0.0 | 3.2 | 0.00 | 0.00 | 0.00 | 82 | 1016.3 |
| 20260507070559 | 10 | 147 | 0.0 | 0.0 | 0.00 | 0.00 | 0.00 | 82 | 1016.4 |
| 20260507070138 | 10 | 147 | 0.0 | 0.0 | 0.00 | 0.00 | 0.00 | 82 | 1016.4 |
| 20260507065556 | 9 | 147 | 0.0 | 0.0 | 0.00 | 0.00 | 0.00 | 83 | 1016.3 |
| 20260507065055 | 9 | 147 | 0.0 | 0.0 | 0.00 | 0.00 | 0.00 | 83 | 1016.4 |
| 20260507064555 | 9 | 147 | 0.0 | 0.0 | 0.00 | 0.00 | 0.00 | 83 | 1016.4 |
| 20260507064056 | 9 | 147 | 0.0 | 3.2 | 0.00 | 0.00 | 0.00 | 84 | 1016.5 |
| 20260507063554 | 9 | 147 | 0.0 | 3.2 | 0.00 | 0.00 | 0.00 | 84 | 1016.4 |
| 20260507063055 | 9 | 147 | 0.0 | 0.0 | 0.00 | 0.00 | 0.00 | 84 | 1016.3 |
| 20260507062551 | 9 | 147 | 0.0 | 0.0 | 0.00 | 0.00 | 0.00 | 83 | 1016.3 |
| 20260507062052 | 9 | 147 | 0.0 | 0.0 | 0.00 | 0.00 | 0.00 | 83 | 1016.2 |
| 20260507061549 | 9 | 147 | 0.0 | 0.0 | 0.00 | 0.00 | 0.00 | 83 | 1016.2 |
| 20260507061048 | 9 | 147 | 0.0 | 0.0 | 0.00 | 0.00 | 0.00 | 83 | 1016.2 |
| 20260507060547 | 9 | 147 | 0.0 | 0.0 | 0.00 | 0.00 | 0.00 | 83 | 1016.1 |
| 20260507060053 | 9 | 147 | 0.0 | 0.0 | 0.00 | 0.00 | 0.00 | 84 | 1016.1 |
| 20260507055549 | 8 | 147 | 0.0 | 0.0 | 0.00 | 0.00 | 0.00 | 83 | 1016.1 |
| 20260507055046 | 8 | 147 | 0.0 | 0.0 | 0.00 | 0.00 | 0.00 | 84 | 1016.0 |
| 20260507054551 | 8 | 147 | 0.0 | 0.0 | 0.00 | 0.00 | 0.00 | 84 | 1016.0 |
| 20260507054045 | 8 | 147 | 0.0 | 3.2 | 0.00 | 0.00 | 0.00 | 85 | 1015.9 |
| 20260507053543 | 8 | 147 | 0.0 | 3.2 | 0.00 | 0.00 | 0.00 | 84 | 1015.9 |
| 20260507053044 | 8 | 147 | 0.0 | 3.2 | 0.00 | 0.00 | 0.00 | 84 | 1015.8 |
| 20260507052541 | 8 | 147 | 0.0 | 0.0 | 0.00 | 0.00 | 0.00 | 84 | 1015.8 |
| 20260507052041 | 8 | 147 | 0.0 | 0.0 | 0.00 | 0.00 | 0.00 | 83 | 1015.7 |
| 20260507051541 | 8 | 147 | 0.0 | 0.0 | 0.00 | 0.00 | 0.00 | 83 | 1015.7 |
| 20260507051040 | 8 | 147 | 0.0 | 3.2 | 0.00 | 0.00 | 0.00 | 85 | 1015.7 |
| 20260507050540 | 8 | 147 | 0.0 | 3.2 | 0.00 | 0.00 | 0.00 | 84 | 1015.6 |
| 20260507050039 | 8 | 309 | 0.0 | 3.2 | 0.00 | 0.00 | 0.00 | 85 | 1015.5 |
| 20260507045538 | 8 | 309 | 0.0 | 3.2 | 0.00 | 0.00 | 0.00 | 85 | 1015.3 |
| 20260507045041 | 8 | 309 | 0.0 | 0.0 | 0.00 | 0.00 | 0.00 | 85 | 1015.3 |
| 20260507044545 | 8 | 309 | 0.0 | 4.8 | 0.00 | 0.00 | 0.00 | 86 | 1015.3 |
| 20260507044036 | 8 | 309 | 0.0 | 4.8 | 0.00 | 0.00 | 0.00 | 86 | 1015.2 |
| 20260507043535 | 8 | 309 | 0.0 | 3.2 | 0.00 | 0.00 | 0.00 | 86 | 1015.1 |
| 20260507043039 | 8 | 309 | 0.0 | 3.2 | 0.00 | 0.00 | 0.00 | 86 | 1015.0 |
| 20260507042534 | 8 | 309 | 0.0 | 1.6 | 0.00 | 0.00 | 0.00 | 86 | 1015.0 |
| 20260507042033 | 8 | 309 | 0.0 | 1.6 | 0.00 | 0.00 | 0.00 | 86 | 1015.0 |
| 20260507041533 | 8 | 309 | 0.0 | 0.0 | 0.00 | 0.00 | 0.00 | 86 | 1015.0 |
| 20260507041032 | 8 | 309 | 0.0 | 0.0 | 0.00 | 0.00 | 0.00 | 86 | 1015.0 |
| 20260507040532 | 8 | 309 | 0.0 | 0.0 | 0.00 | 0.00 | 0.00 | 85 | 1014.9 |
| 20260507040032 | 8 | 309 | 0.0 | 0.0 | 0.00 | 0.00 | 0.00 | 85 | 1015.0 |
| 20260507035532 | 8 | 309 | 0.0 | 0.0 | 0.00 | 0.00 | 0.00 | 85 | 1014.9 |
| 20260507035031 | 8 | 309 | 0.0 | 0.0 | 0.00 | 0.00 | 0.00 | 85 | 1015.0 |
| 20260507034532 | 8 | 309 | 0.0 | 3.2 | 0.00 | 0.00 | 0.00 | 85 | 1015.0 |
| 20260507034030 | 8 | 309 | 0.0 | 3.2 | 0.00 | 0.00 | 0.00 | 85 | 1014.9 |
| 20260507033529 | 8 | 309 | 0.0 | 3.2 | 0.00 | 0.00 | 0.00 | 85 | 1014.9 |
| 20260507033030 | 8 | 309 | 0.0 | 3.2 | 0.00 | 0.00 | 0.00 | 85 | 1014.9 |
| 20260507032528 | 8 | 309 | 0.0 | 0.0 | 0.00 | 0.00 | 0.00 | 84 | 1014.9 |
| 20260507032028 | 8 | 309 | 0.0 | 0.0 | 0.00 | 0.00 | 0.00 | 84 | 1014.8 |
| 20260507031527 | 8 | 309 | 0.0 | 3.2 | 0.00 | 0.00 | 0.00 | 84 | 1014.8 |
| 20260507031031 | 8 | 309 | 0.0 | 4.8 | 0.00 | 0.00 | 0.00 | 84 | 1014.7 |
| 20260507030526 | 8 | 309 | 0.0 | 4.8 | 0.00 | 0.00 | 0.00 | 84 | 1014.7 |
| 20260507030026 | 8 | 309 | 0.0 | 4.8 | 0.00 | 0.00 | 0.00 | 84 | 1014.6 |
| 20260507025525 | 8 | 309 | 1.6 | 4.8 | 0.00 | 0.00 | 0.00 | 84 | 1014.6 |
| 20260507025024 | 8 | 309 | 0.0 | 0.0 | 0.00 | 0.00 | 0.00 | 84 | 1014.5 |
| 20260507024524 | 8 | 309 | 0.0 | 0.0 | 0.00 | 0.00 | 0.00 | 84 | 1014.6 |
| 20260507024024 | 8 | 309 | 0.0 | 0.0 | 0.00 | 0.00 | 0.00 | 84 | 1014.5 |
| 20260507023527 | 8 | 309 | 0.0 | 0.0 | 0.00 | 0.00 | 0.00 | 84 | 1014.6 |
| 20260507023023 | 8 | 309 | 0.0 | 0.0 | 0.00 | 0.00 | 0.00 | 84 | 1014.7 |
| 20260507022523 | 8 | 309 | 0.0 | 0.0 | 0.00 | 0.00 | 0.00 | 84 | 1014.7 |
| 20260507022023 | 8 | 309 | 0.0 | 0.0 | 0.00 | 0.00 | 0.00 | 83 | 1014.7 |
| 20260507021524 | 8 | 309 | 0.0 | 0.0 | 0.00 | 0.00 | 0.00 | 83 | 1014.7 |
| 20260507021022 | 8 | 309 | 0.0 | 0.0 | 0.00 | 0.00 | 0.00 | 83 | 1014.6 |
| 20260507020522 | 8 | 309 | 0.0 | 0.0 | 0.00 | 0.00 | 0.00 | 83 | 1014.6 |
| 20260507020020 | 8 | 309 | 0.0 | 0.0 | 0.00 | 0.00 | 0.00 | 83 | 1014.6 |
| 20260507015520 | 8 | 309 | 0.0 | 3.2 | 0.00 | 0.00 | 0.00 | 83 | 1014.5 |
| 20260507015020 | 8 | 309 | 0.0 | 3.2 | 0.00 | 0.00 | 0.00 | 83 | 1014.4 |
| 20260507014522 | 8 | 309 | 0.0 | 3.2 | 0.00 | 0.00 | 0.00 | 83 | 1014.4 |
| 20260507014020 | 8 | 309 | 0.0 | 4.8 | 0.00 | 0.00 | 0.00 | 82 | 1014.3 |
| 20260507013518 | 8 | 309 | 1.6 | 4.8 | 0.00 | 0.00 | 0.00 | 82 | 1014.3 |
| 20260507013018 | 8 | 309 | 0.0 | 4.8 | 0.00 | 0.00 | 0.00 | 82 | 1014.4 |
| 20260507012521 | 8 | 309 | 0.0 | 0.0 | 0.00 | 0.00 | 0.00 | 81 | 1014.3 |
| 20260507012021 | 8 | 309 | 0.0 | 0.0 | 0.00 | 0.00 | 0.00 | 81 | 1014.3 |
| 20260507011523 | 8 | 309 | 0.0 | 0.0 | 0.00 | 0.00 | 0.00 | 81 | 1014.3 |
| 20260507011020 | 8 | 309 | 0.0 | 0.0 | 0.00 | 0.00 | 0.00 | 81 | 1014.3 |
| 20260507010520 | 8 | 309 | 0.0 | 0.0 | 0.00 | 0.00 | 0.00 | 80 | 1014.3 |
| 20260507010016 | 8 | 309 | 0.0 | 3.2 | 0.00 | 0.00 | 0.00 | 80 | 1014.3 |
| 20260507005522 | 9 | 309 | 0.0 | 3.2 | 0.00 | 0.00 | 0.00 | 79 | 1014.3 |
| 20260507005015 | 9 | 309 | 0.0 | 1.6 | 0.00 | 0.00 | 0.00 | 79 | 1014.1 |
| 20260507004513 | 9 | 309 | 0.0 | 1.6 | 0.00 | 0.00 | 0.00 | 79 | 1014.1 |
| 20260507004012 | 9 | 309 | 0.0 | 4.8 | 0.00 | 0.00 | 0.00 | 78 | 1014.0 |
| 20260507003512 | 9 | 309 | 1.6 | 4.8 | 0.00 | 0.00 | 0.00 | 78 | 1014.0 |
| 20260507003010 | 9 | 309 | 0.0 | 4.8 | 0.00 | 0.00 | 0.00 | 78 | 1014.0 |
| 20260507002509 | 10 | 262 | 0.0 | 0.0 | 0.00 | 0.00 | 0.00 | 78 | 1013.9 |
| 20260507002010 | 10 | 262 | 0.0 | 0.0 | 0.00 | 0.00 | 0.00 | 78 | 1014.0 |
| 20260507001513 | 10 | 266 | 0.0 | 0.0 | 0.00 | 0.00 | 0.00 | 78 | 1013.9 |
| 20260507001009 | 10 | 266 | 0.0 | 0.0 | 0.00 | 0.00 | 0.00 | 78 | 1013.9 |
| 20260507000510 | 10 | 266 | 0.0 | 0.0 | 0.00 | 0.00 | 0.00 | 78 | 1014.0 |
| 20260507000009 | 10 | 266 | 0.0 | 0.0 | 0.00 | 0.00 | 0.00 | 78 | 1014.0 |
| 20260506235507 | 10 | 266 | 0.0 | 1.6 | 0.00 | 0.00 | 0.00 | 78 | 1014.0 |
| 20260506235008 | 10 | 266 | 0.0 | 1.6 | 0.00 | 0.00 | 0.00 | 77 | 1014.0 |
| 20260506234508 | 10 | 266 | 0.0 | 0.0 | 0.00 | 0.00 | 0.00 | 77 | 1014.0 |
| 20260506234005 | 10 | 266 | 0.0 | 0.0 | 0.00 | 0.00 | 0.00 | 76 | 1014.0 |
| 20260506233505 | 10 | 266 | 0.0 | 0.0 | 0.00 | 0.00 | 0.00 | 76 | 1013.9 |
| 20260506233004 | 10 | 266 | 0.0 | 0.0 | 0.00 | 0.00 | 0.00 | 76 | 1014.0 |
| 20260506232506 | 10 | 266 | 0.0 | 0.0 | 0.00 | 0.00 | 0.00 | 76 | 1014.0 |
| 20260506232004 | 10 | 266 | 0.0 | 0.0 | 0.00 | 0.00 | 0.00 | 76 | 1014.0 |
| 20260506231503 | 10 | 266 | 0.0 | 1.6 | 0.00 | 0.00 | 0.00 | 75 | 1014.0 |
| 20260506231003 | 10 | 266 | 0.0 | 1.6 | 0.00 | 0.00 | 0.00 | 74 | 1013.9 |
| 20260506230502 | 10 | 266 | 0.0 | 0.0 | 0.00 | 0.00 | 0.00 | 73 | 1013.9 |
| 20260506230001 | 10 | 266 | 0.0 | 0.0 | 0.00 | 0.00 | 0.00 | 74 | 1013.8 |
| 20260506225501 | 10 | 266 | 0.0 | 0.0 | 0.00 | 0.00 | 0.00 | 73 | 1013.9 |
| 20260506225001 | 10 | 266 | 0.0 | 0.0 | 0.00 | 0.00 | 0.00 | 73 | 1014.0 |
| 20260506224501 | 10 | 266 | 0.0 | 0.0 | 0.00 | 0.00 | 0.00 | 72 | 1013.9 |
| 20260506224101 | 10 | 266 | 0.0 | 0.0 | 0.00 | 0.00 | 0.00 | 72 | 1013.9 |
| 20260506223559 | 10 | 266 | 0.0 | 0.0 | 0.00 | 0.00 | 0.00 | 72 | 1013.8 |
| 20260506223059 | 10 | 266 | 0.0 | 1.6 | 0.00 | 0.00 | 0.00 | 71 | 1013.7 |
| 20260506222559 | 11 | 266 | 0.0 | 1.6 | 0.00 | 0.00 | 0.00 | 70 | 1013.7 |
| 20260506222058 | 11 | 266 | 0.0 | 1.6 | 0.00 | 0.00 | 0.00 | 70 | 1013.7 |
| 20260506221558 | 11 | 266 | 0.0 | 0.0 | 0.00 | 0.00 | 0.00 | 68 | 1013.6 |
| 20260506221055 | 11 | 266 | 0.0 | 0.0 | 0.00 | 0.00 | 0.00 | 67 | 1013.6 |
| 20260506220555 | 11 | 266 | 0.0 | 0.0 | 0.00 | 0.00 | 0.00 | 66 | 1013.5 |
| 20260506220054 | 11 | 266 | 0.0 | 0.0 | 0.00 | 0.00 | 0.00 | 65 | 1013.5 |
| 20260506215557 | 11 | 266 | 0.0 | 1.6 | 0.00 | 0.00 | 0.00 | 64 | 1013.4 |
| 20260506215053 | 11 | 266 | 0.0 | 1.6 | 0.00 | 0.00 | 0.00 | 64 | 1013.4 |
| 20260506214553 | 11 | 266 | 0.0 | 4.8 | 0.00 | 0.00 | 0.00 | 64 | 1013.4 |
| 20260506214053 | 11 | 266 | 0.0 | 8.0 | 0.00 | 0.00 | 0.00 | 63 | 1013.4 |
| 20260506213552 | 11 | 285 | 1.6 | 8.0 | 0.00 | 0.00 | 0.00 | 63 | 1013.4 |
| 20260506213053 | 11 | 282 | 4.8 | 9.7 | 0.00 | 0.00 | 0.00 | 63 | 1013.3 |
| 20260506212555 | 11 | 265 | 4.8 | 9.7 | 0.00 | 0.00 | 0.00 | 63 | 1013.4 |
| 20260506212051 | 11 | 304 | 3.2 | 12.9 | 0.00 | 0.00 | 0.00 | 63 | 1013.3 |
| 20260506211551 | 11 | 160 | 4.8 | 16.1 | 0.00 | 0.00 | 0.00 | 63 | 1013.3 |
| 20260506211051 | 11 | 285 | 6.4 | 16.1 | 0.00 | 0.00 | 0.00 | 63 | 1013.2 |
| 20260506210550 | 11 | 282 | 4.8 | 12.9 | 0.00 | 0.00 | 0.00 | 63 | 1013.2 |
| 20260506210051 | 11 | 281 | 6.4 | 16.1 | 0.00 | 0.00 | 0.00 | 63 | 1013.1 |
| 20260506205549 | 11 | 276 | 6.4 | 17.7 | 0.00 | 0.00 | 0.00 | 63 | 1013.1 |
| 20260506205049 | 11 | 278 | 8.0 | 20.9 | 0.00 | 0.00 | 0.00 | 63 | 1013.0 |
| 20260506204548 | 11 | 297 | 11.3 | 19.3 | 0.00 | 0.00 | 0.00 | 63 | 1013.0 |
| 20260506204047 | 11 | 272 | 9.7 | 19.3 | 0.00 | 0.00 | 0.00 | 63 | 1013.0 |
| 20260506203547 | 11 | 304 | 8.0 | 22.5 | 0.00 | 0.00 | 0.00 | 63 | 1012.8 |
| 20260506203051 | 11 | 275 | 12.9 | 27.4 | 0.00 | 0.00 | 0.00 | 62 | 1012.7 |
| 20260506202546 | 11 | 276 | 11.3 | 27.4 | 0.00 | 0.00 | 0.00 | 62 | 1012.7 |
| 20260506202046 | 11 | 309 | 11.3 | 22.5 | 0.00 | 0.00 | 0.00 | 62 | 1012.7 |
| 20260506201606 | 11 | 309 | 11.3 | 22.5 | 0.00 | 0.00 | 0.00 | 62 | 1012.6 |
| 20260506201046 | 11 | 262 | 12.9 | 22.5 | 0.00 | 0.00 | 0.00 | 63 | 1012.5 |
| 20260506200545 | 12 | 294 | 9.7 | 27.4 | 0.00 | 0.00 | 0.00 | 63 | 1012.3 |
| 20260506200045 | 12 | 272 | 14.5 | 27.4 | 0.00 | 0.00 | 0.00 | 62 | 1012.2 |
| 20260506195545 | 12 | 277 | 12.9 | 24.1 | 0.00 | 0.00 | 0.00 | 63 | 1012.0 |
| 20260506195045 | 12 | 289 | 12.9 | 24.1 | 0.00 | 0.00 | 0.00 | 63 | 1012.0 |
| 20260506194551 | 12 | 271 | 11.3 | 24.1 | 0.00 | 0.00 | 0.00 | 63 | 1011.9 |
| 20260506194045 | 12 | 281 | 8.0 | 20.9 | 0.00 | 0.00 | 0.00 | 63 | 1011.8 |
| 20260506193544 | 12 | 304 | 11.3 | 24.1 | 0.00 | 0.00 | 0.00 | 63 | 1011.7 |
| 20260506193050 | 12 | 272 | 11.3 | 22.5 | 0.00 | 0.00 | 0.00 | 64 | 1011.7 |
| 20260506192543 | 12 | 257 | 16.1 | 29.0 | 0.00 | 0.00 | 0.00 | 64 | 1011.6 |
| 20260506192046 | 12 | 314 | 12.9 | 29.0 | 0.00 | 0.00 | 0.00 | 64 | 1011.5 |
| 20260506191543 | 12 | 295 | 14.5 | 29.0 | 0.00 | 0.00 | 0.00 | 64 | 1011.3 |
| 20260506191146 | 12 | 274 | 14.5 | 30.6 | 0.00 | 0.00 | 0.00 | 64 | 1011.2 |
| 20260506190545 | 12 | 276 | 17.7 | 33.8 | 0.00 | 0.00 | 0.00 | 65 | 1011.2 |
| 20260506190043 | 12 | 290 | 16.1 | 33.8 | 0.00 | 0.00 | 0.00 | 66 | 1011.0 |
| 20260506185541 | 12 | 295 | 16.1 | 35.4 | 0.00 | 0.00 | 0.00 | 66 | 1011.0 |
| 20260506185042 | 13 | 304 | 16.1 | 35.4 | 0.00 | 0.00 | 0.00 | 65 | 1010.7 |
| 20260506184549 | 13 | 314 | 14.5 | 37.0 | 0.00 | 0.00 | 0.00 | 64 | 1010.5 |
| 20260506184042 | 13 | 272 | 19.3 | 37.0 | 0.00 | 0.00 | 0.00 | 63 | 1010.2 |
| 20260506183544 | 13 | 309 | 17.7 | 35.4 | 0.00 | 0.00 | 0.00 | 62 | 1010.1 |
| 20260506183041 | 13 | 299 | 17.7 | 32.2 | 0.00 | 0.00 | 0.00 | 62 | 1010.0 |
| 20260506182541 | 13 | 309 | 19.3 | 32.2 | 0.00 | 0.00 | 0.00 | 62 | 1009.9 |
| 20260506182041 | 14 | 290 | 17.7 | 29.0 | 0.00 | 0.00 | 0.00 | 61 | 1009.9 |
| 20260506181540 | 14 | 309 | 16.1 | 29.0 | 0.00 | 0.00 | 0.00 | 60 | 1009.9 |
| 20260506181040 | 14 | 304 | 11.3 | 29.0 | 0.00 | 0.00 | 0.00 | 62 | 1009.7 |
| 20260506180540 | 14 | 282 | 11.3 | 20.9 | 0.00 | 0.00 | 0.00 | 62 | 1009.6 |
| 20260506180040 | 14 | 291 | 11.3 | 20.9 | 0.00 | 0.00 | 0.00 | 62 | 1009.6 |
| 20260506175539 | 14 | 291 | 9.7 | 19.3 | 0.00 | 0.00 | 0.00 | 62 | 1009.5 |
| 20260506175040 | 14 | 284 | 8.0 | 17.7 | 0.00 | 0.00 | 0.00 | 62 | 1009.6 |
| 20260506174540 | 14 | 279 | 4.8 | 17.7 | 0.00 | 0.00 | 0.00 | 61 | 1009.3 |
| 20260506174039 | 14 | 267 | 8.0 | 22.5 | 0.00 | 0.00 | 0.00 | 61 | 1009.2 |
| 20260506173542 | 14 | 281 | 8.0 | 27.4 | 0.00 | 0.00 | 0.00 | 61 | 1009.0 |
| 20260506173048 | 14 | 339 | 11.3 | 27.4 | 0.00 | 0.00 | 0.00 | 61 | 1008.9 |
| 20260506172538 | 14 | 292 | 11.3 | 27.4 | 0.00 | 0.00 | 0.00 | 61 | 1008.8 |
| 20260506172038 | 14 | 304 | 14.5 | 27.4 | 0.00 | 0.00 | 0.00 | 61 | 1008.6 |
| 20260506171550 | 15 | 251 | 12.9 | 19.3 | 0.00 | 0.00 | 0.00 | 60 | 1008.4 |
| 20260506171038 | 15 | 266 | 11.3 | 24.1 | 0.00 | 0.00 | 0.00 | 60 | 1008.3 |
| 20260506170538 | 15 | 265 | 9.7 | 27.4 | 0.00 | 0.00 | 0.00 | 60 | 1008.4 |
| 20260506170037 | 15 | 304 | 16.1 | 27.4 | 0.00 | 0.00 | 0.00 | 59 | 1008.1 |
| 20260506165638 | 15 | 304 | 14.5 | 25.7 | 0.00 | 0.00 | 0.00 | 59 | 1008.1 |
| 20260506165037 | 15 | 304 | 12.9 | 20.9 | 0.00 | 0.00 | 0.00 | 59 | 1007.9 |
| 20260506164537 | 15 | 284 | 9.7 | 24.1 | 0.00 | 0.00 | 0.00 | 57 | 1007.9 |
| 20260506164038 | 15 | 257 | 11.3 | 27.4 | 0.00 | 0.00 | 0.00 | 57 | 1007.7 |
| 20260506163536 | 15 | 268 | 14.5 | 32.2 | 0.00 | 0.00 | 0.00 | 55 | 1007.8 |
| 20260506163049 | 16 | 272 | 19.3 | 32.2 | 0.00 | 0.00 | 0.00 | 54 | 1007.7 |
| 20260506162535 | 17 | 284 | 16.1 | 30.6 | 0.00 | 0.00 | 0.00 | 50 | 1007.8 |
| 20260506162039 | 17 | 272 | 14.5 | 30.6 | 0.00 | 0.00 | 0.00 | 46 | 1007.7 |
| 20260506161541 | 18 | 268 | 8.0 | 17.7 | 0.00 | 0.00 | 0.00 | 40 | 1007.7 |
| 20260506161037 | 18 | 267 | 8.0 | 19.3 | 0.00 | 0.00 | 0.00 | 39 | 1007.7 |
| 20260506160535 | 18 | 304 | 4.8 | 19.3 | 0.00 | 0.00 | 0.00 | 38 | 1007.7 |
| 20260506160035 | 18 | 339 | 4.8 | 14.5 | 0.00 | 0.00 | 0.00 | 39 | 1007.6 |
| 20260506155534 | 18 | 320 | 3.2 | 16.1 | 0.00 | 0.00 | 0.00 | 39 | 1007.5 |
| 20260506155034 | 18 | 133 | 3.2 | 19.3 | 0.00 | 0.00 | 0.00 | 40 | 1007.5 |
| 20260506154538 | 18 | 335 | 1.6 | 19.3 | 0.00 | 0.00 | 0.00 | 38 | 1007.4 |
| 20260506154033 | 18 | 190 | 1.6 | 14.5 | 0.00 | 0.00 | 0.00 | 38 | 1007.3 |
| 20260506153532 | 19 | 89 | 4.8 | 17.7 | 0.00 | 0.00 | 0.00 | 38 | 1007.1 |
| 20260506153035 | 19 | 176 | 3.2 | 17.7 | 0.00 | 0.00 | 0.00 | 38 | 1007.1 |
| 20260506152531 | 19 | 153 | 4.8 | 16.1 | 0.00 | 0.00 | 0.00 | 39 | 1007.0 |
| 20260506152032 | 19 | 229 | 1.6 | 16.1 | 0.00 | 0.00 | 0.00 | 39 | 1007.0 |
| 20260506151530 | 19 | 110 | 1.6 | 16.1 | 0.00 | 0.00 | 0.00 | 39 | 1007.2 |
| 20260506151031 | 19 | 139 | 4.8 | 16.1 | 0.00 | 0.00 | 0.00 | 40 | 1007.1 |
| 20260506150531 | 20 | 280 | 3.2 | 12.9 | 0.00 | 0.00 | 0.00 | 39 | 1006.9 |
| 20260506150032 | 20 | 19 | 3.2 | 17.7 | 0.00 | 0.00 | 0.00 | 38 | 1006.9 |
| 20260506145531 | 20 | 314 | 6.4 | 17.7 | 0.00 | 0.00 | 0.00 | 38 | 1006.9 |
| 20260506145034 | 20 | 282 | 1.6 | 17.7 | 0.00 | 0.00 | 0.00 | 38 | 1006.9 |
| 20260506144530 | 20 | 314 | 9.7 | 17.7 | 0.00 | 0.00 | 0.00 | 38 | 1006.8 |
| 20260506144030 | 20 | 292 | 4.8 | 12.9 | 0.00 | 0.00 | 0.00 | 39 | 1006.6 |
| 20260506143530 | 20 | 285 | 6.4 | 12.9 | 0.00 | 0.00 | 0.00 | 39 | 1006.6 |
| 20260506143029 | 20 | 260 | 1.6 | 8.0 | 0.00 | 0.00 | 0.00 | 40 | 1006.6 |
| 20260506142528 | 20 | 127 | 1.6 | 9.7 | 0.00 | 0.00 | 0.00 | 42 | 1006.6 |
| 20260506142028 | 20 | 282 | 1.6 | 4.8 | 0.00 | 0.00 | 0.00 | 39 | 1006.5 |
| 20260506141528 | 20 | 185 | 1.6 | 4.8 | 0.00 | 0.00 | 0.00 | 41 | 1006.7 |
| 20260506141030 | 20 | 183 | 1.6 | 4.8 | 0.00 | 0.00 | 0.00 | 43 | 1006.6 |
| 20260506140530 | 20 | 122 | 0.0 | 4.8 | 0.00 | 0.00 | 0.00 | 42 | 1006.6 |
| 20260506140030 | 20 | 122 | 0.0 | 6.4 | 0.00 | 0.00 | 0.00 | 44 | 1006.7 |
| 20260506135527 | 21 | 107 | 1.6 | 6.4 | 0.00 | 0.00 | 0.00 | 41 | 1006.8 |
| 20260506135029 | 21 | 160 | 0.0 | 4.8 | 0.00 | 0.00 | 0.00 | 44 | 1006.9 |
| 20260506134528 | 21 | 159 | 1.6 | 6.4 | 0.00 | 0.00 | 0.00 | 44 | 1006.9 |
| 20260506134028 | 21 | 320 | 1.6 | 6.4 | 0.00 | 0.00 | 0.00 | 42 | 1006.8 |
| 20260506133525 | 21 | 24 | 0.0 | 6.4 | 0.00 | 0.00 | 0.00 | 42 | 1006.8 |
| 20260506133025 | 21 | 25 | 0.0 | 12.9 | 0.00 | 0.00 | 0.00 | 44 | 1006.7 |
| 20260506132525 | 21 | 314 | 8.0 | 16.1 | 0.00 | 0.00 | 0.00 | 40 | 1006.6 |
| 20260506132025 | 21 | 318 | 11.3 | 16.1 | 0.00 | 0.00 | 0.00 | 43 | 1006.6 |
| 20260506131525 | 21 | 283 | 11.3 | 16.1 | 0.00 | 0.00 | 0.00 | 44 | 1006.6 |
| 20260506131026 | 20 | 279 | 3.2 | 16.1 | 0.00 | 0.00 | 0.00 | 40 | 1006.6 |
| 20260506130525 | 20 | 304 | 9.7 | 16.1 | 0.00 | 0.00 | 0.00 | 45 | 1006.7 |
| 20260506130022 | 20 | 309 | 6.4 | 14.5 | 0.00 | 0.00 | 0.00 | 45 | 1006.8 |
| 20260506125521 | 20 | 314 | 8.0 | 14.5 | 0.00 | 0.00 | 0.00 | 44 | 1006.9 |
| 20260506125021 | 20 | 271 | 9.7 | 16.1 | 0.00 | 0.00 | 0.00 | 43 | 1006.8 |
| 20260506124521 | 20 | 318 | 11.3 | 16.1 | 0.00 | 0.00 | 0.00 | 44 | 1006.8 |
| 20260506124022 | 20 | 304 | 9.7 | 14.5 | 0.00 | 0.00 | 0.00 | 43 | 1006.9 |
| 20260506123520 | 20 | 298 | 9.7 | 16.1 | 0.00 | 0.00 | 0.00 | 44 | 1007.0 |
| 20260506123019 | 20 | 309 | 4.8 | 14.5 | 0.00 | 0.00 | 0.00 | 43 | 1007.1 |
| 20260506122518 | 20 | 106 | 1.6 | 4.8 | 0.00 | 0.00 | 0.00 | 46 | 1007.2 |
| 20260506122016 | 20 | 139 | 1.6 | 3.2 | 0.00 | 0.00 | 0.00 | 46 | 1007.3 |
| 20260506121515 | 20 | 156 | 0.0 | 14.5 | 0.00 | 0.00 | 0.00 | 49 | 1007.4 |
| 20260506121014 | 19 | 149 | 3.2 | 14.5 | 0.00 | 0.00 | 0.00 | 48 | 1007.5 |
| 20260506120514 | 19 | 299 | 6.4 | 14.5 | 0.00 | 0.00 | 0.00 | 49 | 1007.5 |
| 20260506120013 | 18 | 322 | 4.8 | 14.5 | 0.00 | 0.00 | 0.00 | 51 | 1007.4 |
| 20260506115511 | 18 | 304 | 9.7 | 17.7 | 0.00 | 0.00 | 0.00 | 50 | 1007.5 |
| 20260506115010 | 18 | 265 | 6.4 | 19.3 | 0.00 | 0.00 | 0.00 | 52 | 1007.5 |
| 20260506114510 | 18 | 309 | 11.3 | 19.3 | 0.00 | 0.00 | 0.00 | 52 | 1007.6 |
| 20260506114009 | 18 | 272 | 9.7 | 17.7 | 0.00 | 0.00 | 0.00 | 52 | 1007.5 |
| 20260506113508 | 18 | 309 | 9.7 | 14.5 | 0.00 | 0.00 | 0.00 | 51 | 1007.6 |
| 20260506113014 | 18 | 304 | 6.4 | 14.5 | 0.00 | 0.00 | 0.00 | 52 | 1007.6 |
| 20260506112507 | 18 | 309 | 8.0 | 19.3 | 0.00 | 0.00 | 0.00 | 53 | 1007.7 |
| 20260506112006 | 18 | 309 | 11.3 | 19.3 | 0.00 | 0.00 | 0.00 | 52 | 1007.8 |
| 20260506111505 | 18 | 304 | 9.7 | 17.7 | 0.00 | 0.00 | 0.00 | 54 | 1007.9 |
| 20260506111004 | 17 | 309 | 9.7 | 20.9 | 0.00 | 0.00 | 0.00 | 52 | 1008.0 |
| 20260506110504 | 17 | 344 | 14.5 | 20.9 | 0.00 | 0.00 | 0.00 | 54 | 1008.0 |
| 20260506105502 | 17 | 304 | 14.5 | 22.5 | 0.00 | 0.00 | 0.00 | 55 | 1008.1 |
| 20260506105001 | 17 | 323 | 9.7 | 19.3 | 0.00 | 0.00 | 0.00 | 55 | 1008.2 |
| 20260506104600 | 17 | 304 | 12.9 | 19.3 | 0.00 | 0.00 | 0.00 | 55 | 1008.3 |
| 20260506104059 | 17 | 304 | 8.0 | 14.5 | 0.00 | 0.00 | 0.00 | 57 | 1008.4 |
| 20260506103558 | 17 | 278 | 3.2 | 16.1 | 0.00 | 0.00 | 0.00 | 52 | 1008.5 |
| 20260506103056 | 17 | 309 | 9.7 | 16.1 | 0.00 | 0.00 | 0.00 | 58 | 1008.6 |
| 20260506102555 | 17 | 293 | 9.7 | 14.5 | 0.00 | 0.00 | 0.00 | 57 | 1008.8 |
| 20260506102055 | 16 | 280 | 9.7 | 19.3 | 0.00 | 0.00 | 0.00 | 54 | 1008.9 |
| 20260506101553 | 16 | 293 | 12.9 | 19.3 | 0.00 | 0.00 | 0.00 | 58 | 1008.9 |
| 20260506101053 | 16 | 299 | 8.0 | 16.1 | 0.00 | 0.00 | 0.00 | 59 | 1009.0 |
| 20260506100552 | 16 | 338 | 3.2 | 8.0 | 0.00 | 0.00 | 0.00 | 61 | 1009.2 |
| 20260506100051 | 16 | 309 | 4.8 | 8.0 | 0.00 | 0.00 | 0.00 | 61 | 1009.3 |
| 20260506095551 | 15 | 304 | 3.2 | 6.4 | 0.00 | 0.00 | 0.00 | 60 | 1009.2 |
| 20260506095050 | 15 | 304 | 1.6 | 6.4 | 0.00 | 0.00 | 0.00 | 60 | 1009.3 |
| 20260506094551 | 15 | 293 | 4.8 | 8.0 | 0.00 | 0.00 | 0.00 | 59 | 1009.3 |
| 20260506094050 | 16 | 309 | 4.8 | 8.0 | 0.00 | 0.00 | 0.00 | 58 | 1009.3 |
| 20260506093550 | 16 | 309 | 1.6 | 4.8 | 0.00 | 0.00 | 0.00 | 59 | 1009.3 |
| 20260506093107 | 16 | 265 | 0.0 | 3.2 | 0.00 | 0.00 | 0.00 | 56 | 1009.3 |
| 20260506092550 | 16 | 265 | 0.0 | 3.2 | 0.00 | 0.00 | 0.00 | 59 | 1009.3 |
| 20260506092050 | 16 | 265 | 1.6 | 4.8 | 0.00 | 0.00 | 0.00 | 59 | 1009.3 |
| 20260506091550 | 16 | 265 | 1.6 | 4.8 | 0.00 | 0.00 | 0.00 | 57 | 1009.2 |
| 20260506091050 | 16 | 282 | 1.6 | 6.4 | 0.00 | 0.00 | 0.00 | 59 | 1009.2 |
| 20260506090550 | 16 | 309 | 0.0 | 8.0 | 0.00 | 0.00 | 0.00 | 57 | 1009.1 |
| 20260506090055 | 16 | 304 | 3.2 | 9.7 | 0.00 | 0.00 | 0.00 | 60 | 1009.0 |
| 20260506085548 | 16 | 295 | 6.4 | 9.7 | 0.00 | 0.00 | 0.00 | 59 | 1009.1 |
| 20260506085047 | 16 | 320 | 0.0 | 6.4 | 0.00 | 0.00 | 0.00 | 61 | 1009.1 |
| 20260506084547 | 16 | 72 | 1.6 | 3.2 | 0.00 | 0.00 | 0.00 | 62 | 1009.2 |
| 20260506084048 | 16 | 81 | 0.0 | 3.2 | 0.00 | 0.00 | 0.00 | 59 | 1009.2 |
| 20260506083548 | 16 | 81 | 0.0 | 6.4 | 0.00 | 0.00 | 0.00 | 60 | 1009.2 |
| 20260506083046 | 16 | 81 | 0.0 | 6.4 | 0.00 | 0.00 | 0.00 | 56 | 1009.2 |
| 20260506082544 | 16 | 304 | 1.6 | 6.4 | 0.00 | 0.00 | 0.00 | 58 | 1009.2 |
| 20260506082043 | 16 | 314 | 0.0 | 3.2 | 0.00 | 0.00 | 0.00 | 62 | 1009.3 |